TimeCDT,TemperatureF,Dew PointF,Humidity,Sea Level PressureIn,VisibilityMPH,Wind Direction,Wind SpeedMPH,Gust SpeedMPH,PrecipitationIn,Events,Conditions,WindDirDegrees,DateUTC
12:15 AM,74.3,58.8,58,29.97,10.0,South,6.9,-,N/A,,Clear,180,2013-09-07 05:15:00
12:35 AM,73.0,58.1,59,29.97,10.0,South,5.8,-,N/A,,Clear,180,2013-09-07 05:35:00
12:55 AM,72.9,57.6,59,29.97,10.0,South,5.8,-,N/A,,Clear,180,2013-09-07 05:55:00
1:15 AM,71.8,57.2,60,29.97,10.0,South,5.8,-,N/A,,Clear,180,2013-09-07 06:15:00
1:35 AM,71.8,57.7,61,29.97,10.0,South,5.8,-,N/A,,Clear,190,2013-09-07 06:35:00
1:55 AM,71.8,58.5,63,29.97,10.0,South,4.6,-,N/A,,Clear,190,2013-09-07 06:55:00
2:15 AM,71.8,59.4,65,29.97,10.0,South,4.6,-,N/A,,Clear,180,2013-09-07 07:15:00
2:35 AM,71.8,59.9,66,29.96,10.0,South,4.6,-,N/A,,Clear,180,2013-09-07 07:35:00
2:55 AM,71.8,60.3,67,29.96,10.0,SSE,3.5,-,N/A,,Clear,160,2013-09-07 07:55:00
3:15 AM,71.8,61.0,69,29.97,10.0,Calm,Calm,-,N/A,,Clear,0,2013-09-07 08:15:00
3:35 AM,71.1,61.0,70,29.97,10.0,South,3.5,-,N/A,,Clear,170,2013-09-07 08:35:00
3:55 AM,71.8,61.7,70,29.96,10.0,Calm,Calm,-,N/A,,Clear,0,2013-09-07 08:55:00
4:15 AM,71.8,61.7,70,29.96,10.0,South,4.6,-,N/A,,Clear,170,2013-09-07 09:15:00
4:35 AM,71.8,61.2,69,29.96,10.0,South,4.6,-,N/A,,Clear,170,2013-09-07 09:35:00
4:55 AM,71.8,61.7,70,29.95,10.0,South,5.8,-,N/A,,Clear,170,2013-09-07 09:55:00
5:15 AM,69.6,59.9,71,29.95,10.0,South,4.6,-,N/A,,Clear,170,2013-09-07 10:15:00
5:35 AM,71.8,61.7,70,29.95,10.0,South,3.5,-,N/A,,Clear,180,2013-09-07 10:35:00
5:55 AM,71.8,61.7,70,29.95,10.0,South,4.6,-,N/A,,Clear,170,2013-09-07 10:55:00
6:15 AM,71.8,61.7,70,29.95,10.0,South,4.6,-,N/A,,Clear,180,2013-09-07 11:15:00
6:35 AM,71.8,61.7,70,29.95,10.0,South,5.8,-,N/A,,Clear,170,2013-09-07 11:35:00
6:55 AM,71.8,61.7,70,29.95,10.0,SSW,5.8,-,N/A,,Clear,200,2013-09-07 11:55:00
7:15 AM,71.8,60.8,68,29.95,10.0,South,6.9,-,N/A,,Clear,170,2013-09-07 12:15:00
7:35 AM,71.8,60.8,68,29.96,10.0,South,5.8,-,N/A,,Clear,170,2013-09-07 12:35:00
7:55 AM,71.8,60.1,67,29.96,10.0,South,4.6,-,N/A,,Scattered Clouds,190,2013-09-07 12:55:00
8:15 AM,73.0,60.3,64,29.95,10.0,South,8.1,-,N/A,Rain,Light Rain,180,2013-09-07 13:15:00
8:35 AM,71.8,62.2,72,29.95,10.0,Calm,Calm,-,N/A,,Scattered Clouds,0,2013-09-07 13:35:00
8:55 AM,73.9,63.3,69,29.95,10.0,Calm,Calm,-,N/A,,Scattered Clouds,0,2013-09-07 13:55:00
9:15 AM,76.8,64.4,65,29.95,10.0,South,4.6,-,N/A,,Scattered Clouds,180,2013-09-07 14:15:00
9:35 AM,77.0,63.3,63,29.92,10.0,SSE,9.2,-,N/A,,Scattered Clouds,150,2013-09-07 14:35:00
9:55 AM,77.0,65.3,67,29.93,10.0,South,3.5,-,N/A,,Scattered Clouds,190,2013-09-07 14:55:00
10:15 AM,78.6,64.0,61,29.93,10.0,Calm,Calm,-,N/A,,Clear,0,2013-09-07 15:15:00
10:35 AM,81.9,62.8,52,29.93,10.0,South,4.6,-,N/A,,Clear,190,2013-09-07 15:35:00
10:55 AM,83.3,63.0,50,29.94,10.0,SSW,8.1,-,N/A,,Clear,210,2013-09-07 15:55:00
11:15 AM,84.4,62.8,48,29.93,10.0,SSW,6.9,-,N/A,,Clear,210,2013-09-07 16:15:00
11:35 AM,85.1,63.1,48,29.93,10.0,SW,5.8,-,N/A,,Clear,220,2013-09-07 16:35:00
11:55 AM,87.1,63.5,45,29.92,10.0,SSW,5.8,-,N/A,,Clear,210,2013-09-07 16:55:00
12:15 PM,92.3,66.4,42,29.92,10.0,WSW,6.9,-,N/A,,Clear,250,2013-09-07 17:15:00
12:35 PM,91.9,65.8,42,29.90,10.0,WSW,4.6,-,N/A,,Clear,240,2013-09-07 17:35:00
12:55 PM,92.3,64.9,40,29.89,10.0,SSW,5.8,-,N/A,,Clear,200,2013-09-07 17:55:00
1:15 PM,92.3,63.3,38,29.89,10.0,SSW,3.5,-,N/A,,Clear,210,2013-09-07 18:15:00
1:35 PM,92.8,62.8,37,29.88,10.0,WSW,4.6,-,N/A,,Clear,240,2013-09-07 18:35:00
1:55 PM,94.3,64.0,37,29.88,10.0,SW,8.1,-,N/A,,Clear,220,2013-09-07 18:55:00
2:15 PM,94.6,63.3,35,29.88,10.0,SW,3.5,-,N/A,,Clear,220,2013-09-07 19:15:00
2:35 PM,97.2,64.9,35,29.88,10.0,SW,8.1,-,N/A,,Clear,230,2013-09-07 19:35:00
2:55 PM,97.2,65.1,35,29.88,10.0,West,3.5,-,N/A,,Clear,260,2013-09-07 19:55:00
3:15 PM,97.2,65.1,35,29.87,10.0,WNW,5.8,-,N/A,,Clear,300,2013-09-07 20:15:00
3:35 PM,97.2,64.9,35,29.87,10.0,WNW,5.8,-,N/A,,Clear,300,2013-09-07 20:35:00
3:55 PM,94.6,64.9,37,29.87,10.0,WNW,3.5,-,N/A,,Clear,300,2013-09-07 20:55:00
4:15 PM,92.3,64.6,40,29.87,10.0,NNW,3.5,-,N/A,,Clear,340,2013-09-07 21:15:00
4:35 PM,92.3,66.6,43,29.87,10.0,North,6.9,-,N/A,,Clear,350,2013-09-07 21:35:00
4:55 PM,92.3,67.3,44,29.87,10.0,North,5.8,-,N/A,,Clear,360,2013-09-07 21:55:00
5:15 PM,92.3,69.4,47,29.87,10.0,NNW,4.6,-,N/A,,Clear,340,2013-09-07 22:15:00
5:35 PM,85.6,70.7,61,29.87,7.0,North,5.8,-,N/A,Rain,Light Rain,360,2013-09-07 22:35:00
5:55 PM,85.1,71.4,63,29.87,10.0,North,3.5,-,N/A,,Clear,10,2013-09-07 22:55:00
6:15 PM,85.8,70.3,60,29.88,7.0,NE,3.5,-,N/A,,Clear,50,2013-09-07 23:15:00
6:35 PM,86.0,69.3,57,29.88,10.0,NE,4.6,-,N/A,,Clear,40,2013-09-07 23:35:00
6:55 PM,85.3,69.3,59,29.88,10.0,NE,5.8,-,N/A,,Clear,50,2013-09-07 23:55:00
7:15 PM,84.4,70.0,62,29.88,10.0,East,3.5,-,N/A,,Clear,80,2013-09-08 00:15:00
7:35 PM,83.3,70.7,66,29.89,7.0,ENE,4.6,-,N/A,,Clear,60,2013-09-08 00:35:00
7:55 PM,81.9,70.7,69,29.89,10.0,ENE,4.6,-,N/A,Rain,Light Rain,70,2013-09-08 00:55:00
8:15 PM,81.9,72.0,72,29.89,10.0,ENE,3.5,-,N/A,,Clear,60,2013-09-08 01:15:00
8:35 PM,80.8,71.4,73,29.90,10.0,NE,4.6,-,N/A,,Clear,50,2013-09-08 01:35:00
8:55 PM,79.3,70.2,73,29.90,10.0,ENE,3.5,-,N/A,,Clear,60,2013-09-08 01:55:00
9:15 PM,79.3,69.8,72,29.90,10.0,ENE,3.5,-,N/A,,Clear,60,2013-09-08 02:15:00
9:35 PM,79.3,69.8,72,29.90,10.0,ENE,4.6,-,N/A,,Clear,60,2013-09-08 02:35:00
9:55 PM,78.1,70.0,76,29.90,10.0,NE,5.8,-,N/A,,Clear,50,2013-09-08 02:55:00
10:15 PM,77.9,69.6,76,29.90,10.0,NE,5.8,-,N/A,,Clear,50,2013-09-08 03:15:00
10:35 PM,79.2,70.2,74,29.90,10.0,ENE,5.8,-,N/A,,Clear,60,2013-09-08 03:35:00
10:55 PM,79.3,69.8,72,29.90,10.0,NE,4.6,-,N/A,,Clear,40,2013-09-08 03:55:00
11:15 PM,77.0,69.1,76,29.90,10.0,NE,5.8,-,N/A,,Clear,50,2013-09-08 04:15:00
11:35 PM,79.3,69.8,72,29.90,10.0,NE,4.6,-,N/A,,Clear,50,2013-09-08 04:35:00
11:55 PM,77.0,67.8,73,29.90,10.0,NE,4.6,-,N/A,,Clear,40,2013-09-08 04:55:00